Mitchell, SD

3:40 PM CDT on June 26, 2017 (GMT -0500)
Mitchell Municipal

Weather History for KMHE - July, 2012

Change the Weather History Date:

Monday, July 2, 2012

  Actual Average Record
Temperature  
Mean Temperature 88 °F 74 °F  
Max Temperature 103 °F 86 °F 103 °F (2012)
Min Temperature 73 °F 62 °F 43 °F (1945)
Degree Days  
Heating Degree Days 0 0  
Month to date heating degree days 0 0  
Since 1 June heating degree days 14 35  
Since 1 July heating degree days 0 0  
Cooling Degree Days 23 9  
Month to date cooling degree days 42 18  
Year to date cooling degree days 422 228  
Since 1 June cooling degree days 323 188  
Growing Degree Days 38 (Base 50)    
Moisture  
Dew Point 66 °F    
Average Humidity 57    
Maximum Humidity 87    
Minimum Humidity 27    
Precipitation  
Precipitation 0.00 in 0.13 in 2.50 in (1933)
Month to date precipitation 0.00 0.25  
Year to date precipitation 16.66 11.11  
Snow  
Snow 0.00 in - 0.00 in ()
Month to date snowfall 0.0  
Since 1 June snowfall 0.0  
Since 1 July snowfall 0.0  
Snow Depth 0.00 in    
Sea Level Pressure  
Sea Level Pressure 29.73 in    
Wind  
Wind Speed 13 mph (South)    
Max Wind Speed 23 mph    
Max Gust Speed 33 mph    
Visibility 10 miles    
Events      
T = Trace of Precipitation, MM = Missing Value Source: NWS Daily Summary

Daily Weather History Graph

Daily Weather History Graph

Search for Another Location

Airport or City:

Trip Planner

Search our weather history database for the weather conditions in past years. The results will help you decide how hot, cold, wet, or windy it might be!

Date:

Astronomy

Jul. 02, 2012 Rise Set
Actual Time 5:54 AM CDT 9:17 PM CDT
Civil Twilight 5:19 AM CDT 9:53 PM CDT
Nautical Twilight 4:32 AM CDT 10:39 PM CDT
Astronomical Twilight 3:33 AM CDT 11:38 PM CDT
Moon 8:20 PM CDT (7/2) 4:44 AM CDT (7/2)
Length of Visible Light 16h 34m
Length of Day
15h 22m
Waxing Gibbous, 98% of the Moon is Illuminated
Jul 2
Waxing Gibbous
Jul 3
Full
Jul 10
Last Quarter
Jul 18
New
Jul 26
First Quarter

Hourly Weather History & Observations

Time (CDT) Temp. Heat Index Dew Point Humidity Pressure Visibility Wind Dir Wind Speed Gust Speed Precip Events Conditions
12:53 AM 77.0 °F - 66.0 °F 69% 29.77 in 10.0 mi SSE 8.1 mph - N/A   Clear
1:53 AM 75.9 °F - 66.9 °F 74% 29.76 in 10.0 mi SSE 9.2 mph - N/A   Clear
2:53 AM 75.0 °F - 69.1 °F 82% 29.75 in 10.0 mi SSE 11.5 mph - N/A   Clear
3:53 AM 75.0 °F - 69.1 °F 82% 29.73 in 10.0 mi SSE 9.2 mph - N/A   Clear
4:53 AM 73.9 °F - 69.1 °F 85% 29.72 in 9.0 mi SSE 10.4 mph - N/A   Clear
5:53 AM 73.0 °F - 69.1 °F 87% 29.74 in 9.0 mi SSE 11.5 mph - N/A   Clear
6:53 AM 73.9 °F - 69.1 °F 85% 29.75 in 8.0 mi SSE 8.1 mph - N/A   Clear
7:53 AM 78.1 °F - 68.0 °F 71% 29.75 in 10.0 mi South 13.8 mph - N/A   Clear
8:53 AM 80.1 °F 82.7 °F 68.0 °F 67% 29.76 in 10.0 mi South 8.1 mph - N/A   Clear
9:53 AM 84.0 °F 86.3 °F 66.0 °F 55% 29.75 in 10.0 mi South 10.4 mph - N/A   Clear
10:53 AM 87.1 °F 89.2 °F 66.0 °F 49% 29.75 in 10.0 mi South 12.7 mph - N/A   Clear
11:53 AM 91.9 °F 95.4 °F 66.9 °F 44% 29.74 in 10.0 mi South 11.5 mph - N/A   Clear
12:53 PM 96.1 °F 99.9 °F 66.9 °F 38% 29.72 in 10.0 mi South 15.0 mph 21.9 mph N/A   Clear
1:53 PM 100.0 °F 101.8 °F 63.0 °F 29% 29.72 in 10.0 mi SSW 19.6 mph 27.6 mph N/A   Clear
2:53 PM 100.9 °F 102.7 °F 62.1 °F 28% 29.71 in 10.0 mi SSW 21.9 mph 32.2 mph N/A   Clear
3:53 PM 102.0 °F 104.6 °F 63.0 °F 28% 29.70 in 10.0 mi South 19.6 mph 28.8 mph N/A   Clear
4:53 PM 102.0 °F 104.6 °F 63.0 °F 28% 29.70 in 10.0 mi SSW 19.6 mph 27.6 mph N/A   Clear
6:53 PM 98.1 °F 99.6 °F 63.0 °F 31% 29.68 in 10.0 mi South 13.8 mph 26.5 mph N/A   Clear
7:53 PM 95.0 °F 97.0 °F 64.0 °F 36% 29.68 in 10.0 mi South 12.7 mph 19.6 mph N/A   Clear
8:53 PM 91.9 °F 93.3 °F 64.0 °F 39% 29.68 in 10.0 mi South 12.7 mph 21.9 mph N/A   Clear
9:53 PM 89.1 °F 91.3 °F 66.0 °F 46% 29.69 in 10.0 mi South 13.8 mph 20.7 mph N/A   Clear
10:53 PM 86.0 °F 88.2 °F 66.0 °F 51% 29.72 in 10.0 mi South 12.7 mph - N/A   Clear
11:53 PM 84.9 °F 87.1 °F 66.0 °F 53% 29.72 in 10.0 mi SSW 10.4 mph 33.4 mph N/A   Clear